Terug naar catalogus

COSMOS 343

ActiefMilitairLEO
NORAD 4390·PAYLOAD·🇷🇺 Russia

Gelanceerd Apr 25, 1970 vanaf Plesetsk Cosmodrome

Loading…

Volgende Passages (komende 24 uur)

TLE

VersSource: Space-Track

Epoch: Sep 14, 2026, 13:25 UTC

1  4390U 70036H   26257.55924200 -.00000001  00000-0  90915-4 0  9991
2  4390  74.0283 299.1420 0060280 222.4585 292.1830 12.60464216594356

Volg COSMOS 343 in realtime met AllMySat

Download on the App Store